Location: 476 Grange Obs.
(45.1421°N, 7.1417°E)
Time: 19:59:05
(UTC+01:00)

Envisat - Pass Details

Date: 22 October 2019
Orbit: 764 x 766 km, 98.1° (Epoch: 14 November)

Event Time Altitude Azimuth Distance (km) Brightness Sun altitude
Rises 06:59:39 0° 33° (NNE) 3,241 6.7 -10.6°
Reaches altitude 10° 07:03:30 10° 63° (ENE) 2,307 6.4 -9.9°
Maximum altitude 07:05:35 12° 87° (E) 2,137 6.8 -9.6°
Drops below altitude 10° 07:07:40 10° 112° (ESE) 2,300 6.9 -9.2°
Sets 07:11:27 0° 141° (SE) 3,218 7.0 -8.5°
